User: anonymous   Login
Location: Albany
(35.0000°S, 118.0000°E)
Time: 21:43:27
(UTC-05:00)
Language:

Centaur D-1AR AC-48 - Orbit

View from above orbital plane
View from above orbital plane
View from above satellite
View from above satellite

Ground track
Ground track

The orbit data is extracted from the following two-line orbital elements,

1 10779U 78035B   14326.46605211 -.00000130  00000-0 -13783-2 0  9808
2 10779 021.7571 034.4019 7176625 155.4198 340.5752 02.22639407297792
Epoch (UTC): 22 November 2014 11:11:06
Eccentricity: 0.7176625
inclination: 21.7571°
perigee height: 616 km
apogee height: 36175 km
right ascension of ascending node: 34.4019°
argument of perigee: 155.4198°
revolutions per day: 2.22639407
mean anomaly at epoch: 340.5752°
orbit number at epoch: 29779

The dashed part of the orbit path shows where the satellite is in the earth's shadow,  

DLR